Tracking 20719 objects as of 26-May-2020
HD Live streaming from Space Station
objects crossing your sky now

GALAXY 25 (TELSTAR 5)

Track GALAXY 25 (TELSTAR 5) now!
GALAXY 25 (TELSTAR 5) is classified as:


NORAD ID: 24812
Int'l Code: 1997-026A
Perigee: 35,783.1 km
Apogee: 35,806.4 km
Inclination: 1.9 °
Period: 1,436.1 minutes
Semi major axis: 42165 km
RCS: 43.2964 m2 (large)
Launch date: May 24, 1997
Source: United States (US)
Launch site: TYURATAM MISSILE AND SPACE COMPLEX (TTMTR)

24 C-band, 28 Ku-band; U.S., southern Canada, Mexico, Caribbean.
aabbcc
Your satellite tracking list
Your tracking list is empty




NASA's NSSDC Master Catalog

Two Line Element Set (TLE):
1 24812U 97026A   20146.73454965 +.00000163 +00000-0 +00000-0 0  9997
2 24812 001.8719 090.5938 0002758 330.6677 119.7948 01.00268220084184
Source of the keplerian elements: AFSPC